Seattle Boeing, WA

2:33 AM PDT on July 25, 2017 (GMT -0700)
Boeing Field-King County International

Weather History for KBFI - November, 2012

Change the Weather History Date:

Thursday, November 22, 2012

  Actual Average Record
Temperature  
Mean Temperature 40 °F -  
Max Temperature 46 °F 45 °F 58 °F (1954)
Min Temperature 35 °F 36 °F 14 °F (1985)
Degree Days  
Heating Degree Days 24    
Moisture  
Dew Point 37 °F    
Average Humidity 81    
Maximum Humidity 96    
Minimum Humidity 68    
Precipitation  
Precipitation 0.02 in - - ()
Sea Level Pressure  
Sea Level Pressure 30.30 in    
Wind  
Wind Speed 1 mph (SE)    
Max Wind Speed 5 mph    
Max Gust Speed -    
Visibility 10 miles    
Events Rain    
Averages and records for this station are not official NWS values.
T = Trace of Precipitation, MM = Missing Value Source: NWS Daily Summary

Daily Weather History Graph

Daily Weather History Graph

Search for Another Location

Airport or City:

Trip Planner

Search our weather history database for the weather conditions in past years. The results will help you decide how hot, cold, wet, or windy it might be!

Date:

Astronomy

Nov. 22, 2012 Rise Set
Actual Time 7:25 AM PST 4:25 PM PST
Civil Twilight 6:50 AM PST 4:59 PM PST
Nautical Twilight 6:12 AM PST 5:37 PM PST
Astronomical Twilight 5:36 AM PST 6:14 PM PST
Moon 1:32 PM PST (11/22) 1:29 AM PST (11/22)
Length of Visible Light 10h 09m
Length of Day
9h 00m
Waxing Gibbous, 72% of the Moon is Illuminated
Nov 22
Waxing Gibbous
Nov 28
Full
Dec 6
Last Quarter
Dec 13
New
Dec 19
First Quarter

Hourly Weather History & Observations

Time (PST) Temp. Windchill Dew Point Humidity Pressure Visibility Wind Dir Wind Speed Gust Speed Precip Events Conditions
12:53 AM 39.9 °F - 36.0 °F 86% 30.31 in 10.0 mi Calm Calm - N/A   Scattered Clouds
1:53 AM 39.0 °F - 35.1 °F 86% 30.32 in 10.0 mi Calm Calm - N/A   Scattered Clouds
2:53 AM 37.9 °F - 34.0 °F 86% 30.34 in 10.0 mi Calm Calm - N/A   Scattered Clouds
3:53 AM 37.4 °F - 35.6 °F 93% 30.35 in 10.0 mi Calm Calm - N/A   Scattered Clouds
4:53 AM 36.0 °F - 34.0 °F 93% 30.36 in 10.0 mi Calm Calm - N/A   Scattered Clouds
5:53 AM 35.1 °F 32.2 °F 34.0 °F 96% 30.37 in 10.0 mi SE 3.5 mph - N/A   Partly Cloudy
6:53 AM 35.1 °F 31.0 °F 33.1 °F 92% 30.37 in 10.0 mi SSE 4.6 mph - N/A   Mostly Cloudy
7:53 AM 37.0 °F - 35.1 °F 93% 30.36 in 10.0 mi Calm Calm - N/A   Scattered Clouds
8:53 AM 39.0 °F - 36.0 °F 89% 30.37 in 10.0 mi Calm Calm - N/A   Mostly Cloudy
9:53 AM 41.0 °F - 37.0 °F 86% 30.37 in 10.0 mi Calm Calm - N/A   Overcast
10:53 AM 43.0 °F - 37.9 °F 82% 30.36 in 10.0 mi Calm Calm - N/A   Overcast
11:53 AM 44.1 °F - 37.0 °F 76% 30.34 in 10.0 mi Calm Calm - N/A   Overcast
12:53 PM 45.0 °F - 37.0 °F 74% 30.31 in 10.0 mi Calm Calm - N/A   Overcast
1:53 PM 46.0 °F - 37.9 °F 73% 30.31 in 10.0 mi Calm Calm - N/A   Mostly Cloudy
2:53 PM 46.9 °F - 37.0 °F 68% 30.30 in 10.0 mi Calm Calm - N/A   Mostly Cloudy
3:53 PM 46.9 °F - 37.9 °F 71% 30.29 in 10.0 mi Calm Calm - N/A   Overcast
4:53 PM 46.0 °F - 39.0 °F 76% 30.28 in 10.0 mi Calm Calm - N/A   Overcast
5:53 PM 45.0 °F 43.5 °F 39.9 °F 82% 30.25 in 10.0 mi ESE 3.5 mph - N/A   Overcast
6:53 PM 46.0 °F - 37.9 °F 73% 30.25 in 10.0 mi Calm Calm - N/A   Scattered Clouds
7:53 PM 46.0 °F - 37.9 °F 73% 30.22 in 10.0 mi Calm Calm - N/A   Mostly Cloudy
8:53 PM 46.0 °F - 36.0 °F 68% 30.21 in 10.0 mi Calm Calm - N/A   Overcast
9:53 PM 45.0 °F - 37.9 °F 76% 30.23 in 10.0 mi Calm Calm - N/A   Mostly Cloudy
10:53 PM 46.0 °F 43.9 °F 39.0 °F 76% 30.22 in 10.0 mi ESE 4.6 mph - 0.01 in Rain Light Rain
11:53 PM 46.0 °F 43.9 °F 39.9 °F 79% 30.23 in 10.0 mi ESE 4.6 mph - 0.01 in Rain Light Rain